{"data":{"norad_id":60518,"intl_designator":"2024-149BC","name":"FLOCK 4BE-1","alt_names":[],"object_type":"PAYLOAD","status":"ACTIVE","operator":null,"country":"US","launch_date":"2024-08-16","launch_site_code":"AFWTR","launch_vehicle":null,"mission":null,"orbit_class":"UNKNOWN","rcs_meters":null,"size_class":null,"mass_kg":null,"dimensions":null,"purposes":["earth_obs"],"wikipedia_slug":null,"has_3d_model":false,"image_url":null,"decayed_at":null,"tle_current":{"epoch":"2026-05-25T03:34:57.667584Z","epoch_age_seconds":62478,"freshness":"FRESH","line1":"1 60518U 24149BC  26145.14927856  .00017399  00000+0  41356-3 0  9990","line2":"2 60518  97.3780 229.9250 0004099  39.4953 320.6592 15.41717753 98825","mean_motion":15.41717753,"eccentricity":0.0004099,"inclination_deg":97.378,"raan_deg":229.925,"arg_perigee_deg":39.4953,"mean_anomaly_deg":320.6592,"bstar":0.00041356,"rev_number":9882,"period_min":93.402310325475,"perigee_km":438.24423098836,"apogee_km":443.83459181043,"semimajor_km":6819.1764113994,"source":"CELESTRAK","updated_at":"2026-05-25T13:38:13.334393Z"}}}